Simultaneous Nadir Overpasses (SNOs) Predictions

Prediction of SNOs between FY3D and NOAA-19 Satellite Orbit:

Table of predicted SNOs for the next 14.0 days since TLE Epoch: 6/10/2023
Index Date (FY3D) Time (FY3D) Lat,Lon (FY3D) SZA (FY3D ) Date (NOAA-19) Time (NOAA-19) Lat,Lon (NOAA-19) SZA (NOAA-19 ) Distance(km) Time Diff (sec)
1 06/21/2023 08:17:01 -76.13,-131.45 127.25 06/21/2023 08:15:55 -76.12,-134.77 127.09 88.70 66
2 06/21/2023 09:07:57 76.58, 34.19 53.26 06/21/2023 09:06:47 76.58, 34.27 53.28 2.27 70
3 06/21/2023 09:58:43 -76.59,-158.57 126.72 06/21/2023 09:57:44 -76.56,-158.57 126.74 3.93 59
4 06/21/2023 10:49:29 76.60, 8.72 53.29 06/21/2023 10:48:46 76.59, 8.79 53.28 2.01 43
5 06/21/2023 11:40:14 -76.57, 176.13 126.75 06/21/2023 11:39:42 -76.60, 176.12 126.71 3.50 32
6 06/21/2023 12:31:00 76.58, -16.57 53.26 06/21/2023 12:30:45 76.59, -16.70 53.28 3.58 15
7 06/21/2023 13:21:46 -76.59, 150.67 126.72 06/21/2023 13:21:41 -76.61, 150.64 126.71 1.45 5
8 06/21/2023 14:12:32 76.60, -42.04 53.29 06/21/2023 14:12:44 76.59, -42.18 53.29 3.75 12
9 06/21/2023 15:03:18 -76.62, 125.20 126.69 06/21/2023 15:03:40 -76.61, 125.15 126.70 1.61 22
10 06/21/2023 15:54:04 76.62, -67.51 53.31 06/21/2023 15:54:42 76.64, -67.49 53.32 1.90 38
11 06/21/2023 16:44:50 -76.64, 99.73 126.67 06/21/2023 16:45:38 -76.65, 99.84 126.67 3.19 48
12 06/21/2023 17:35:36 76.64, -92.97 53.34 06/21/2023 17:36:41 76.64, -92.97 53.33 0.37 65
13 06/21/2023 18:26:23 -76.71, 74.09 126.59 06/21/2023 18:27:37 -76.65, 74.36 126.67 8.84 74



Historial Predications of SNOs between FY3D and NOAA-19
